Starlink 31559

operational
NORAD ID: 59358 Int'l Des: 2024-060 Owner: SPXS Country: US Constellation: starlink
LEOCIRCULAR

Starlink 31559について

説明を読み込み中...

リアルタイム位置

3D地球を読み込み中...

次回通過

高度履歴

Altitude vs Time

uPlot chart will show altitude changes over time

軌道要素

1 59358U 24060L 25354.04421876 .00003530 00000-0 13779-3 0 9994
2 59358 43.0041 349.5209 0001565 294.7746 65.2943 15.27566404 97883
Epoch: Dec 20, 2025 • Age: 23 hours

現在のステータス

高度 491.2 km
速度 7.62 km/s
衛星直下点 -31.06°S, 113.82°E
打ち上げ日 Mar 31, 2024
運用期間 1.7 years
タイプ internet

技術仕様

分類 Payload
質量 730.00 kg
乾燥質量 700.00 kg
総質量 730.00 kg
長さ 0.30 m
直径 4.10 m
スパン 29.00 m
形状 Box + pan
製造者 SPXS
バスタイプ Starlink V2M
フェーズステータス In Orbit
所有者/国 SPXS/US

大規模コンステレーション

Loading constellations...